Location: Most
(50.5133°N, 13.6207°E)
Time: 05:07:48
(UTC+01:00)

HuskySat-1 - Visible Passes

Search period start: 06 December 2021 00:00
Search period end: 16 December 2021 00:00
Orbit: 443 x 456 km, 51.6° (Epoch: 05 December)

Date Brightness Start Highest point End Pass type
(mag) Time Alt. Az. Time Alt. Az. Time Alt. Az.
06 Dec ? 16:49:12 10° SSW 16:52:25 31° SSE 16:55:36 10° E visible
06 Dec ? 18:26:05 10° WSW 18:29:16 69° W 18:29:16 69° W visible
07 Dec ? 17:48:12 10° WSW 17:51:47 82° SSE 17:52:55 41° E visible
07 Dec ? 19:25:47 10° W 19:26:30 15° W 19:26:30 15° W visible
08 Dec ? 17:10:21 10° WSW 17:13:55 72° SSE 17:16:33 17° ENE visible
08 Dec ? 18:47:52 10° W 18:50:07 35° WNW 18:50:07 35° WNW visible
09 Dec ? 18:09:57 10° W 18:13:32 72° N 18:13:44 69° NNE visible
10 Dec ? 17:32:00 10° W 17:35:36 74° N 17:37:21 28° ENE visible
10 Dec ? 19:09:36 10° WNW 19:10:55 21° WNW 19:10:55 21° WNW visible
11 Dec ? 16:54:03 10° W 16:57:39 79° N 17:00:58 12° ENE visible
11 Dec ? 18:31:39 10° WNW 18:34:32 55° WNW 18:34:32 55° WNW visible
12 Dec ? 17:53:41 10° W 17:57:17 78° N 17:58:12 47° E visible
12 Dec ? 19:31:15 10° W 19:31:46 13° W 19:31:46 13° W visible
13 Dec ? 17:15:42 10° W 17:19:18 74° N 17:21:53 18° E visible
13 Dec ? 18:53:15 10° WNW 18:55:28 33° W 18:55:28 33° W visible
14 Dec ? 16:37:43 10° W 16:41:18 72° N 16:44:52 10° E visible
14 Dec ? 18:15:15 10° WNW 18:18:48 63° SSW 18:19:14 57° SSE visible
15 Dec ? 17:37:15 10° WNW 17:40:50 74° SSW 17:43:05 21° ESE visible
15 Dec ? 19:15:08 10° W 19:16:41 18° WSW 19:16:41 18° WSW visible
